Location: Lower Kingswood
(51.2667°N, 0.2167°W)
Time: 13:14:25
(UTC+00:00)

Cosmos 2333 Rocket - Pass Details

Date: 26 September 2023
Orbit: 837 x 864 km, 70.8° (Epoch: 28 November)

Event Time Altitude Azimuth Distance (km) Brightness Sun altitude
Rises 04:13:23 0° 327° (NNW) 3,425 5.2 -16.1°
Reaches altitude 10° 04:15:52 10° 324° (NW) 2,490 4.5 -15.7°
Maximum altitude 04:21:29 59° 246° (WSW) 985 2.2 -14.9°
Drops below altitude 10° 04:27:05 10° 169° (SSE) 2,490 4.6 -14.1°
Sets 04:29:34 0° 165° (SSE) 3,425 5.4 -13.7°
